owner,sensor,date,latitude,longitude,sea_water_turbidity,qcFlag 
NERRS,ioos:station:NOAA.NERRS:marmbwq:1,2014-06-01T02:30:00Z,28.1384,-96.8285,19.0,1111122 
NERRS,ioos:station:NOAA.NERRS:marmbwq:1,2014-06-01T04:30:00Z,28.1384,-96.8285,13.0,1111122 
NERRS,ioos:station:NOAA.NERRS:marmbwq:1,2014-06-01T05:30:00Z,28.1384,-96.8285,13.0,1111122 
NERRS,ioos:station:NOAA.NERRS:marmbwq:1,2014-06-01T07:00:00Z,28.1384,-96.8285,13.0,1111122 
NERRS,ioos:station:NOAA.NERRS:marmbwq:1,2014-06-01T07:30:00Z,28.1384,-96.8285,12.0,1111122 
NERRS,ioos:station:NOAA.NERRS:marmbwq:1,2014-06-01T08:30:00Z,28.1384,-96.8285,11.0,1111122 
NERRS,ioos:station:NOAA.NERRS:marmbwq:1,2014-06-01T09:30:00Z,28.1384,-96.8285,10.0,1111122 
NERRS,ioos:station:NOAA.NERRS:marmbwq:1,2014-06-01T10:30:00Z,28.1384,-96.8285,10.0,1111122 
NERRS,ioos:station:NOAA.NERRS:marmbwq:1,2014-06-01T11:30:00Z,28.1384,-96.8285,12.0,1111122 
NERRS,ioos:station:NOAA.NERRS:marmbwq:1,2014-06-01T13:30:00Z,28.1384,-96.8285,9.0,1111122 
NERRS,ioos:station:NOAA.NERRS:marmbwq:1,2014-06-01T14:30:00Z,28.1384,-96.8285,11.0,1111122 
NERRS,ioos:station:NOAA.NERRS:marmbwq:1,2014-06-01T16:30:00Z,28.1384,-96.8285,10.0,1111122 
NERRS,ioos:station:NOAA.NERRS:marmbwq:1,2014-06-01T17:30:00Z,28.1384,-96.8285,10.0,1111122 
NERRS,ioos:station:NOAA.NERRS:marmbwq:1,2014-06-01T18:30:00Z,28.1384,-96.8285,10.0,1111122 
NERRS,ioos:station:NOAA.NERRS:marmbwq:1,2014-06-01T19:30:00Z,28.1384,-96.8285,11.0,1111122 
NERRS,ioos:station:NOAA.NERRS:marmbwq:1,2014-06-01T20:30:00Z,28.1384,-96.8285,13.0,1111122 
NERRS,ioos:station:NOAA.NERRS:marmbwq:1,2014-06-01T21:30:00Z,28.1384,-96.8285,18.0,1111122 
NERRS,ioos:station:NOAA.NERRS:marmbwq:1,2014-06-01T22:30:00Z,28.1384,-96.8285,18.0,1111122 
NERRS,ioos:station:NOAA.NERRS:marmbwq:1,2014-06-01T23:30:00Z,28.1384,-96.8285,21.0,1111122 
NERRS,ioos:station:NOAA.NERRS:marmbwq:1,2014-06-02T00:30:00Z,28.1384,-96.8285,28.0,1111122 
NERRS,ioos:station:NOAA.NERRS:marmbwq:1,2014-06-02T01:30:00Z,28.1384,-96.8285,38.0,1111122 
NERRS,ioos:station:NOAA.NERRS:marmbwq:1,2014-06-02T02:30:00Z,28.1384,-96.8285,30.0,1111122 
NERRS,ioos:station:NOAA.NERRS:marmbwq:1,2014-06-02T03:30:00Z,28.1384,-96.8285,26.0,1111122 
NERRS,ioos:station:NOAA.NERRS:marmbwq:1,2014-06-02T04:30:00Z,28.1384,-96.8285,31.0,1111122 
NERRS,ioos:station:NOAA.NERRS:marmbwq:1,2014-06-02T05:30:00Z,28.1384,-96.8285,33.0,1111122 
NERRS,ioos:station:NOAA.NERRS:marmbwq:1,2014-06-02T07:00:00Z,28.1384,-96.8285,32.0,1111122 
NERRS,ioos:station:NOAA.NERRS:marmbwq:1,2014-06-02T07:30:00Z,28.1384,-96.8285,32.0,1111122 
NERRS,ioos:station:NOAA.NERRS:marmbwq:1,2014-06-02T12:30:00Z,28.1384,-96.8285,28.0,1111122 
NERRS,ioos:station:NOAA.NERRS:marmbwq:1,2014-06-02T13:30:00Z,28.1384,-96.8285,34.0,1111122 
NERRS,ioos:station:NOAA.NERRS:marmbwq:1,2014-06-02T15:30:00Z,28.1384,-96.8285,28.0,1111122 
NERRS,ioos:station:NOAA.NERRS:marmbwq:1,2014-06-02T16:30:00Z,28.1384,-96.8285,28.0,1111122 
NERRS,ioos:station:NOAA.NERRS:marmbwq:1,2014-06-02T17:30:00Z,28.1384,-96.8285,20.0,1111122 
NERRS,ioos:station:NOAA.NERRS:marmbwq:1,2014-06-02T18:30:00Z,28.1384,-96.8285,22.0,1111122 
NERRS,ioos:station:NOAA.NERRS:marmbwq:1,2014-06-02T19:30:00Z,28.1384,-96.8285,26.0,1111122 
NERRS,ioos:station:NOAA.NERRS:marmbwq:1,2014-06-02T20:30:00Z,28.1384,-96.8285,25.0,1111122 
NERRS,ioos:station:NOAA.NERRS:marmbwq:1,2014-06-02T21:30:00Z,28.1384,-96.8285,24.0,1111122 
NERRS,ioos:station:NOAA.NERRS:marmbwq:1,2014-06-02T22:30:00Z,28.1384,-96.8285,25.0,1111122 
NERRS,ioos:station:NOAA.NERRS:marmbwq:1,2014-06-02T23:30:00Z,28.1384,-96.8285,29.0,1111122 
NERRS,ioos:station:NOAA.NERRS:marmbwq:1,2014-06-03T00:30:00Z,28.1384,-96.8285,25.0,1111122 
NERRS,ioos:station:NOAA.NERRS:marmbwq:1,2014-06-03T02:30:00Z,28.1384,-96.8285,28.0,1111122 
NERRS,ioos:station:NOAA.NERRS:marmbwq:1,2014-06-03T03:30:00Z,28.1384,-96.8285,28.0,1111122 
NERRS,ioos:station:NOAA.NERRS:marmbwq:1,2014-06-03T04:30:00Z,28.1384,-96.8285,33.0,1111122 
NERRS,ioos:station:NOAA.NERRS:marmbwq:1,2014-06-03T05:30:00Z,28.1384,-96.8285,26.0,1111122 
NERRS,ioos:station:NOAA.NERRS:marmbwq:1,2014-06-03T07:00:00Z,28.1384,-96.8285,24.0,1111122 
NERRS,ioos:station:NOAA.NERRS:marmbwq:1,2014-06-03T07:30:00Z,28.1384,-96.8285,23.0,1111122 
NERRS,ioos:station:NOAA.NERRS:marmbwq:1,2014-06-03T09:30:00Z,28.1384,-96.8285,21.0,1111122 
NERRS,ioos:station:NOAA.NERRS:marmbwq:1,2014-06-03T11:30:00Z,28.1384,-96.8285,24.0,1111122 
NERRS,ioos:station:NOAA.NERRS:marmbwq:1,2014-06-03T13:30:00Z,28.1384,-96.8285,14.0,1111122 
NERRS,ioos:station:NOAA.NERRS:marmbwq:1,2014-06-03T15:30:00Z,28.1384,-96.8285,14.0,1111122 
NERRS,ioos:station:NOAA.NERRS:marmbwq:1,2014-06-03T16:30:00Z,28.1384,-96.8285,13.0,1111122 
NERRS,ioos:station:NOAA.NERRS:marmbwq:1,2014-06-03T17:30:00Z,28.1384,-96.8285,28.0,1111122 
NERRS,ioos:station:NOAA.NERRS:marmbwq:1,2014-06-03T19:30:00Z,28.1384,-96.8285,14.0,1111122 
NERRS,ioos:station:NOAA.NERRS:marmbwq:1,2014-06-03T20:30:00Z,28.1384,-96.8285,18.0,1111122 
NERRS,ioos:station:NOAA.NERRS:marmbwq:1,2014-06-03T21:30:00Z,28.1384,-96.8285,22.0,1111122 
NERRS,ioos:station:NOAA.NERRS:marmbwq:1,2014-06-03T22:30:00Z,28.1384,-96.8285,21.0,1111122 
NERRS,ioos:station:NOAA.NERRS:marmbwq:1,2014-06-03T23:30:00Z,28.1384,-96.8285,29.0,1111122 
NERRS,ioos:station:NOAA.NERRS:marmbwq:1,2014-06-04T04:30:00Z,28.1384,-96.8285,23.0,1111122 
NERRS,ioos:station:NOAA.NERRS:marmbwq:1,2014-06-04T07:30:00Z,28.1384,-96.8285,29.0,1111122 
NERRS,ioos:station:NOAA.NERRS:marmbwq:1,2014-06-04T08:30:00Z,28.1384,-96.8285,20.0,1111122 
NERRS,ioos:station:NOAA.NERRS:marmbwq:1,2014-06-04T10:30:00Z,28.1384,-96.8285,19.0,1111122 
NERRS,ioos:station:NOAA.NERRS:marmbwq:1,2014-06-04T12:30:00Z,28.1384,-96.8285,20.0,1111122 
NERRS,ioos:station:NOAA.NERRS:marmbwq:1,2014-06-04T13:30:00Z,28.1384,-96.8285,22.0,1111122 
NERRS,ioos:station:NOAA.NERRS:marmbwq:1,2014-06-04T14:30:00Z,28.1384,-96.8285,18.0,1111122 
NERRS,ioos:station:NOAA.NERRS:marmbwq:1,2014-06-04T17:30:00Z,28.1384,-96.8285,13.0,1111122 
NERRS,ioos:station:NOAA.NERRS:marmbwq:1,2014-06-04T18:30:00Z,28.1384,-96.8285,12.0,1111122 
NERRS,ioos:station:NOAA.NERRS:marmbwq:1,2014-06-04T19:30:00Z,28.1384,-96.8285,13.0,1111122 
NERRS,ioos:station:NOAA.NERRS:marmbwq:1,2014-06-04T20:30:00Z,28.1384,-96.8285,11.0,1111122 
NERRS,ioos:station:NOAA.NERRS:marmbwq:1,2014-06-04T21:30:00Z,28.1384,-96.8285,15.0,1111122 
NERRS,ioos:station:NOAA.NERRS:marmbwq:1,2014-06-04T22:30:00Z,28.1384,-96.8285,34.0,1111122 
NERRS,ioos:station:NOAA.NERRS:marmbwq:1,2014-06-04T23:30:00Z,28.1384,-96.8285,45.0,1111122 
NERRS,ioos:station:NOAA.NERRS:marmbwq:1,2014-06-05T02:30:00Z,28.1384,-96.8285,36.0,1111122 
NERRS,ioos:station:NOAA.NERRS:marmbwq:1,2014-06-05T03:30:00Z,28.1384,-96.8285,30.0,1111122 
NERRS,ioos:station:NOAA.NERRS:marmbwq:1,2014-06-05T04:30:00Z,28.1384,-96.8285,37.0,1111122 
NERRS,ioos:station:NOAA.NERRS:marmbwq:1,2014-06-05T07:00:00Z,28.1384,-96.8285,75.0,1111122 
NERRS,ioos:station:NOAA.NERRS:marmbwq:1,2014-06-05T07:30:00Z,28.1384,-96.8285,54.0,1111122 
NERRS,ioos:station:NOAA.NERRS:marmbwq:1,2014-06-05T08:30:00Z,28.1384,-96.8285,42.0,1111122 
NERRS,ioos:station:NOAA.NERRS:marmbwq:1,2014-06-05T10:30:00Z,28.1384,-96.8285,38.0,1111122 
NERRS,ioos:station:NOAA.NERRS:marmbwq:1,2014-06-05T11:30:00Z,28.1384,-96.8285,37.0,1111122 
NERRS,ioos:station:NOAA.NERRS:marmbwq:1,2014-06-05T12:30:00Z,28.1384,-96.8285,37.0,1111122 
NERRS,ioos:station:NOAA.NERRS:marmbwq:1,2014-06-05T13:30:00Z,28.1384,-96.8285,47.0,1111122 
NERRS,ioos:station:NOAA.NERRS:marmbwq:1,2014-06-05T14:30:00Z,28.1384,-96.8285,41.0,1111122 
NERRS,ioos:station:NOAA.NERRS:marmbwq:1,2014-06-05T15:30:00Z,28.1384,-96.8285,42.0,1111122 
NERRS,ioos:station:NOAA.NERRS:marmbwq:1,2014-06-05T16:30:00Z,28.1384,-96.8285,65.0,1111122 
NERRS,ioos:station:NOAA.NERRS:marmbwq:1,2014-06-05T17:30:00Z,28.1384,-96.8285,40.0,1111122 
NERRS,ioos:station:NOAA.NERRS:marmbwq:1,2014-06-05T18:30:00Z,28.1384,-96.8285,30.0,1111122 
NERRS,ioos:station:NOAA.NERRS:marmbwq:1,2014-06-05T19:30:00Z,28.1384,-96.8285,22.0,1111122 
NERRS,ioos:station:NOAA.NERRS:marmbwq:1,2014-06-05T21:30:00Z,28.1384,-96.8285,17.0,1111122 
NERRS,ioos:station:NOAA.NERRS:marmbwq:1,2014-06-05T22:30:00Z,28.1384,-96.8285,16.0,1111122 
NERRS,ioos:station:NOAA.NERRS:marmbwq:1,2014-06-05T23:30:00Z,28.1384,-96.8285,16.0,1111122 
NERRS,ioos:station:NOAA.NERRS:marmbwq:1,2014-06-06T01:30:00Z,28.1384,-96.8285,12.0,1111122 
NERRS,ioos:station:NOAA.NERRS:marmbwq:1,2014-06-06T02:30:00Z,28.1384,-96.8285,14.0,1111122 
NERRS,ioos:station:NOAA.NERRS:marmbwq:1,2014-06-06T04:30:00Z,28.1384,-96.8285,17.0,1111122 
NERRS,ioos:station:NOAA.NERRS:marmbwq:1,2014-06-06T05:30:00Z,28.1384,-96.8285,27.0,1111122 
NERRS,ioos:station:NOAA.NERRS:marmbwq:1,2014-06-06T07:00:00Z,28.1384,-96.8285,32.0,1111122 
NERRS,ioos:station:NOAA.NERRS:marmbwq:1,2014-06-06T07:30:00Z,28.1384,-96.8285,40.0,1111122 
NERRS,ioos:station:NOAA.NERRS:marmbwq:1,2014-06-06T08:30:00Z,28.1384,-96.8285,41.0,1111122 
NERRS,ioos:station:NOAA.NERRS:marmbwq:1,2014-06-06T10:30:00Z,28.1384,-96.8285,26.0,1111122 
NERRS,ioos:station:NOAA.NERRS:marmbwq:1,2014-06-06T11:30:00Z,28.1384,-96.8285,22.0,1111122 
NERRS,ioos:station:NOAA.NERRS:marmbwq:1,2014-06-06T12:30:00Z,28.1384,-96.8285,20.0,1111122 
NERRS,ioos:station:NOAA.NERRS:marmbwq:1,2014-06-06T13:30:00Z,28.1384,-96.8285,22.0,1111122 
NERRS,ioos:station:NOAA.NERRS:marmbwq:1,2014-06-06T14:30:00Z,28.1384,-96.8285,30.0,1111122 
NERRS,ioos:station:NOAA.NERRS:marmbwq:1,2014-06-06T15:30:00Z,28.1384,-96.8285,26.0,1111122 
NERRS,ioos:station:NOAA.NERRS:marmbwq:1,2014-06-06T16:30:00Z,28.1384,-96.8285,38.0,1111122 
NERRS,ioos:station:NOAA.NERRS:marmbwq:1,2014-06-06T19:30:00Z,28.1384,-96.8285,48.0,1111122 
NERRS,ioos:station:NOAA.NERRS:marmbwq:1,2014-06-06T20:30:00Z,28.1384,-96.8285,48.0,1111122 
NERRS,ioos:station:NOAA.NERRS:marmbwq:1,2014-06-06T21:30:00Z,28.1384,-96.8285,37.0,1111122 
NERRS,ioos:station:NOAA.NERRS:marmbwq:1,2014-06-06T23:30:00Z,28.1384,-96.8285,61.0,1111122 
NERRS,ioos:station:NOAA.NERRS:marmbwq:1,2014-06-07T00:30:00Z,28.1384,-96.8285,60.0,1111122 
NERRS,ioos:station:NOAA.NERRS:marmbwq:1,2014-06-07T01:30:00Z,28.1384,-96.8285,46.0,1111122 
NERRS,ioos:station:NOAA.NERRS:marmbwq:1,2014-06-08T01:30:00Z,28.1384,-96.8285,52.0,1111122 
NERRS,ioos:station:NOAA.NERRS:marmbwq:1,2014-06-08T02:30:00Z,28.1384,-96.8285,50.0,1111122 
NERRS,ioos:station:NOAA.NERRS:marmbwq:1,2014-06-08T03:30:00Z,28.1384,-96.8285,51.0,1111122 
NERRS,ioos:station:NOAA.NERRS:marmbwq:1,2014-06-08T05:30:00Z,28.1384,-96.8285,72.0,1111122 
NERRS,ioos:station:NOAA.NERRS:marmbwq:1,2014-06-08T07:00:00Z,28.1384,-96.8285,108.0,1111122 
NERRS,ioos:station:NOAA.NERRS:marmbwq:1,2014-06-08T07:30:00Z,28.1384,-96.8285,99.0,1111122 
NERRS,ioos:station:NOAA.NERRS:marmbwq:1,2014-06-08T09:30:00Z,28.1384,-96.8285,127.0,1111122 
NERRS,ioos:station:NOAA.NERRS:marmbwq:1,2014-06-08T10:30:00Z,28.1384,-96.8285,115.0,1111122 
NERRS,ioos:station:NOAA.NERRS:marmbwq:1,2014-06-08T11:30:00Z,28.1384,-96.8285,91.0,1111122 
NERRS,ioos:station:NOAA.NERRS:marmbwq:1,2014-06-08T12:30:00Z,28.1384,-96.8285,82.0,1111122 
NERRS,ioos:station:NOAA.NERRS:marmbwq:1,2014-06-08T13:30:00Z,28.1384,-96.8285,79.0,1111122 
NERRS,ioos:station:NOAA.NERRS:marmbwq:1,2014-06-08T14:30:00Z,28.1384,-96.8285,92.0,1111122 
NERRS,ioos:station:NOAA.NERRS:marmbwq:1,2014-06-08T16:30:00Z,28.1384,-96.8285,91.0,1111122 
NERRS,ioos:station:NOAA.NERRS:marmbwq:1,2014-06-08T18:30:00Z,28.1384,-96.8285,62.0,1111122 
NERRS,ioos:station:NOAA.NERRS:marmbwq:1,2014-06-08T19:30:00Z,28.1384,-96.8285,52.0,1111122 
NERRS,ioos:station:NOAA.NERRS:marmbwq:1,2014-06-08T22:30:00Z,28.1384,-96.8285,82.0,1111122 
NERRS,ioos:station:NOAA.NERRS:marmbwq:1,2014-06-08T23:30:00Z,28.1384,-96.8285,94.0,1111122 
NERRS,ioos:station:NOAA.NERRS:marmbwq:1,2014-06-09T00:30:00Z,28.1384,-96.8285,113.0,1111122 
NERRS,ioos:station:NOAA.NERRS:marmbwq:1,2014-06-09T01:30:00Z,28.1384,-96.8285,130.0,1111122 
NERRS,ioos:station:NOAA.NERRS:marmbwq:1,2014-06-09T02:30:00Z,28.1384,-96.8285,148.0,1111122 
NERRS,ioos:station:NOAA.NERRS:marmbwq:1,2014-06-09T03:30:00Z,28.1384,-96.8285,194.0,1111122 
NERRS,ioos:station:NOAA.NERRS:marmbwq:1,2014-06-09T04:30:00Z,28.1384,-96.8285,130.0,1111122 
NERRS,ioos:station:NOAA.NERRS:marmbwq:1,2014-06-09T05:30:00Z,28.1384,-96.8285,133.0,1111122 
NERRS,ioos:station:NOAA.NERRS:marmbwq:1,2014-06-09T07:00:00Z,28.1384,-96.8285,145.0,1111122 
NERRS,ioos:station:NOAA.NERRS:marmbwq:1,2014-06-09T07:30:00Z,28.1384,-96.8285,123.0,1111122 
NERRS,ioos:station:NOAA.NERRS:marmbwq:1,2014-06-09T08:30:00Z,28.1384,-96.8285,136.0,1111122 
NERRS,ioos:station:NOAA.NERRS:marmbwq:1,2014-06-09T09:30:00Z,28.1384,-96.8285,203.0,1111122 
NERRS,ioos:station:NOAA.NERRS:marmbwq:1,2014-06-09T10:30:00Z,28.1384,-96.8285,232.0,1111122 
NERRS,ioos:station:NOAA.NERRS:marmbwq:1,2014-06-09T11:30:00Z,28.1384,-96.8285,219.0,1111122 
NERRS,ioos:station:NOAA.NERRS:marmbwq:1,2014-06-12T13:30:00Z,28.1384,-96.8285,64.0,1111122 
NERRS,ioos:station:NOAA.NERRS:marmbwq:1,2014-06-12T20:30:00Z,28.1384,-96.8285,60.0,1111122 
NERRS,ioos:station:NOAA.NERRS:marmbwq:1,2014-06-12T21:30:00Z,28.1384,-96.8285,56.0,1111122 
NERRS,ioos:station:NOAA.NERRS:marmbwq:1,2014-06-14T08:30:00Z,28.1384,-96.8285,23.0,1111122 
NERRS,ioos:station:NOAA.NERRS:marmbwq:1,2014-06-14T09:30:00Z,28.1384,-96.8285,24.0,1111122 
NERRS,ioos:station:NOAA.NERRS:marmbwq:1,2014-06-14T11:30:00Z,28.1384,-96.8285,24.0,1111122 
NERRS,ioos:station:NOAA.NERRS:marmbwq:1,2014-06-14T12:30:00Z,28.1384,-96.8285,20.0,1111122 
NERRS,ioos:station:NOAA.NERRS:marmbwq:1,2014-06-14T13:30:00Z,28.1384,-96.8285,26.0,1111122 
NERRS,ioos:station:NOAA.NERRS:marmbwq:1,2014-06-14T14:30:00Z,28.1384,-96.8285,28.0,1111122 
NERRS,ioos:station:NOAA.NERRS:marmbwq:1,2014-06-14T15:30:00Z,28.1384,-96.8285,25.0,1111122 
NERRS,ioos:station:NOAA.NERRS:marmbwq:1,2014-06-14T16:30:00Z,28.1384,-96.8285,25.0,1111122 
NERRS,ioos:station:NOAA.NERRS:marmbwq:1,2014-06-14T19:30:00Z,28.1384,-96.8285,19.0,1111122 
NERRS,ioos:station:NOAA.NERRS:marmbwq:1,2014-06-14T20:30:00Z,28.1384,-96.8285,19.0,1111122 
NERRS,ioos:station:NOAA.NERRS:marmbwq:1,2014-06-14T22:30:00Z,28.1384,-96.8285,25.0,1111122 
NERRS,ioos:station:NOAA.NERRS:marmbwq:1,2014-06-14T23:30:00Z,28.1384,-96.8285,32.0,1111122 
NERRS,ioos:station:NOAA.NERRS:marmbwq:1,2014-06-15T00:30:00Z,28.1384,-96.8285,36.0,1111122 
NERRS,ioos:station:NOAA.NERRS:marmbwq:1,2014-06-15T01:30:00Z,28.1384,-96.8285,40.0,1111122 
NERRS,ioos:station:NOAA.NERRS:marmbwq:1,2014-06-15T04:30:00Z,28.1384,-96.8285,40.0,1111122 
NERRS,ioos:station:NOAA.NERRS:marmbwq:1,2014-06-15T05:30:00Z,28.1384,-96.8285,34.0,1111122 
NERRS,ioos:station:NOAA.NERRS:marmbwq:1,2014-06-15T06:30:00Z,28.1384,-96.8285,37.0,1111122 
NERRS,ioos:station:NOAA.NERRS:marmbwq:1,2014-06-15T07:30:00Z,28.1384,-96.8285,41.0,1111122 
NERRS,ioos:station:NOAA.NERRS:marmbwq:1,2014-06-15T08:30:00Z,28.1384,-96.8285,46.0,1111122 
NERRS,ioos:station:NOAA.NERRS:marmbwq:1,2014-06-15T09:30:00Z,28.1384,-96.8285,39.0,1111122 
NERRS,ioos:station:NOAA.NERRS:marmbwq:1,2014-06-15T10:30:00Z,28.1384,-96.8285,32.0,1111122 
NERRS,ioos:station:NOAA.NERRS:marmbwq:1,2014-06-15T14:30:00Z,28.1384,-96.8285,49.0,1111122 
NERRS,ioos:station:NOAA.NERRS:marmbwq:1,2014-06-16T07:30:00Z,28.1384,-96.8285,46.0,1111122 
NERRS,ioos:station:NOAA.NERRS:marmbwq:1,2014-06-16T18:30:00Z,28.1384,-96.8285,61.0,1111122 
NERRS,ioos:station:NOAA.NERRS:marmbwq:1,2014-06-17T20:30:00Z,28.1384,-96.8285,69.0,1111122 
NERRS,ioos:station:NOAA.NERRS:marmbwq:1,2014-06-21T06:30:00Z,28.1384,-96.8285,32.0,1111122 
NERRS,ioos:station:NOAA.NERRS:marmbwq:1,2014-06-24T03:30:00Z,28.1384,-96.8285,63.0,1111122 
NERRS,ioos:station:NOAA.NERRS:marmbwq:1,2014-06-24T17:30:00Z,28.1384,-96.8285,24.0,1111122 
NERRS,ioos:station:NOAA.NERRS:marmbwq:1,2014-06-24T20:30:00Z,28.1384,-96.8285,22.0,1111122 
NERRS,ioos:station:NOAA.NERRS:marmbwq:1,2014-06-24T21:30:00Z,28.1384,-96.8285,18.0,1111122 
NERRS,ioos:station:NOAA.NERRS:marmbwq:1,2014-06-24T22:30:00Z,28.1384,-96.8285,18.0,1111122 
NERRS,ioos:station:NOAA.NERRS:marmbwq:1,2014-06-25T01:30:00Z,28.1384,-96.8285,22.0,1111122 
NERRS,ioos:station:NOAA.NERRS:marmbwq:1,2014-06-25T02:30:00Z,28.1384,-96.8285,23.0,1111122 
NERRS,ioos:station:NOAA.NERRS:marmbwq:1,2014-06-25T04:30:00Z,28.1384,-96.8285,24.0,1111122 
NERRS,ioos:station:NOAA.NERRS:marmbwq:1,2014-06-25T05:30:00Z,28.1384,-96.8285,28.0,1111122 
NERRS,ioos:station:NOAA.NERRS:marmbwq:1,2014-06-25T07:00:00Z,28.1384,-96.8285,30.0,1111122 
NERRS,ioos:station:NOAA.NERRS:marmbwq:1,2014-06-25T07:30:00Z,28.1384,-96.8285,30.0,1111122 
NERRS,ioos:station:NOAA.NERRS:marmbwq:1,2014-06-25T08:30:00Z,28.1384,-96.8285,66.0,1111122 
NERRS,ioos:station:NOAA.NERRS:marmbwq:1,2014-06-25T09:30:00Z,28.1384,-96.8285,24.0,1111122 
NERRS,ioos:station:NOAA.NERRS:marmbwq:1,2014-06-25T10:30:00Z,28.1384,-96.8285,20.0,1111122 
NERRS,ioos:station:NOAA.NERRS:marmbwq:1,2014-06-25T14:30:00Z,28.1384,-96.8285,15.0,1111122 
NERRS,ioos:station:NOAA.NERRS:marmbwq:1,2014-06-25T15:30:00Z,28.1384,-96.8285,18.0,1111122 
NERRS,ioos:station:NOAA.NERRS:marmbwq:1,2014-06-25T16:30:00Z,28.1384,-96.8285,21.0,1111122 
NERRS,ioos:station:NOAA.NERRS:marmbwq:1,2014-06-25T17:30:00Z,28.1384,-96.8285,22.0,1111122 
NERRS,ioos:station:NOAA.NERRS:marmbwq:1,2014-06-25T19:30:00Z,28.1384,-96.8285,11.0,1111122 
NERRS,ioos:station:NOAA.NERRS:marmbwq:1,2014-06-25T20:30:00Z,28.1384,-96.8285,12.0,1111122 
NERRS,ioos:station:NOAA.NERRS:marmbwq:1,2014-06-25T21:30:00Z,28.1384,-96.8285,11.0,1111122 
NERRS,ioos:station:NOAA.NERRS:marmbwq:1,2014-06-25T22:30:00Z,28.1384,-96.8285,21.0,1111122 
NERRS,ioos:station:NOAA.NERRS:marmbwq:1,2014-06-25T23:30:00Z,28.1384,-96.8285,19.0,1111122 
NERRS,ioos:station:NOAA.NERRS:marmbwq:1,2014-06-26T00:30:00Z,28.1384,-96.8285,17.0,1111122 
NERRS,ioos:station:NOAA.NERRS:marmbwq:1,2014-06-26T01:30:00Z,28.1384,-96.8285,22.0,1111122 
NERRS,ioos:station:NOAA.NERRS:marmbwq:1,2014-06-26T02:30:00Z,28.1384,-96.8285,48.0,1111122 
NERRS,ioos:station:NOAA.NERRS:marmbwq:1,2014-06-26T03:30:00Z,28.1384,-96.8285,21.0,1111122 
NERRS,ioos:station:NOAA.NERRS:marmbwq:1,2014-06-26T05:30:00Z,28.1384,-96.8285,19.0,1111122 
NERRS,ioos:station:NOAA.NERRS:marmbwq:1,2014-06-26T06:30:00Z,28.1384,-96.8285,42.0,1111122 
NERRS,ioos:station:NOAA.NERRS:marmbwq:1,2014-06-26T07:30:00Z,28.1384,-96.8285,50.0,1111122 
NERRS,ioos:station:NOAA.NERRS:marmbwq:1,2014-06-26T09:30:00Z,28.1384,-96.8285,35.0,1111122 
NERRS,ioos:station:NOAA.NERRS:marmbwq:1,2014-06-26T10:30:00Z,28.1384,-96.8285,34.0,1111122 
NERRS,ioos:station:NOAA.NERRS:marmbwq:1,2014-06-26T11:30:00Z,28.1384,-96.8285,30.0,1111122 
NERRS,ioos:station:NOAA.NERRS:marmbwq:1,2014-06-26T13:30:00Z,28.1384,-96.8285,34.0,1111122 
NERRS,ioos:station:NOAA.NERRS:marmbwq:1,2014-06-26T14:30:00Z,28.1384,-96.8285,42.0,1111122 
NERRS,ioos:station:NOAA.NERRS:marmbwq:1,2014-06-26T15:30:00Z,28.1384,-96.8285,36.0,1111122 
NERRS,ioos:station:NOAA.NERRS:marmbwq:1,2014-06-26T16:30:00Z,28.1384,-96.8285,24.0,1111122 
NERRS,ioos:station:NOAA.NERRS:marmbwq:1,2014-06-26T17:30:00Z,28.1384,-96.8285,19.0,1111122 
NERRS,ioos:station:NOAA.NERRS:marmbwq:1,2014-06-26T18:30:00Z,28.1384,-96.8285,14.0,1111122 
NERRS,ioos:station:NOAA.NERRS:marmbwq:1,2014-06-26T19:30:00Z,28.1384,-96.8285,11.0,1111122 
NERRS,ioos:station:NOAA.NERRS:marmbwq:1,2014-06-26T20:30:00Z,28.1384,-96.8285,12.0,1111122 
NERRS,ioos:station:NOAA.NERRS:marmbwq:1,2014-06-26T21:30:00Z,28.1384,-96.8285,13.0,1111122 
NERRS,ioos:station:NOAA.NERRS:marmbwq:1,2014-06-26T23:00:00Z,28.1384,-96.8285,50.0,1111122 
NERRS,ioos:station:NOAA.NERRS:marmbwq:1,2014-06-27T00:30:00Z,28.1384,-96.8285,61.0,1111122 
NERRS,ioos:station:NOAA.NERRS:marmbwq:1,2014-06-27T04:00:00Z,28.1384,-96.8285,78.0,1111122 
NERRS,ioos:station:NOAA.NERRS:marmbwq:1,2014-06-27T07:00:00Z,28.1384,-96.8285,64.0,1111122 
NERRS,ioos:station:NOAA.NERRS:marmbwq:1,2014-06-27T07:30:00Z,28.1384,-96.8285,94.0,1111122 
NERRS,ioos:station:NOAA.NERRS:marmbwq:1,2014-06-27T09:30:00Z,28.1384,-96.8285,102.0,1111122 
NERRS,ioos:station:NOAA.NERRS:marmbwq:1,2014-06-27T12:30:00Z,28.1384,-96.8285,91.0,1111122 
NERRS,ioos:station:NOAA.NERRS:marmbwq:1,2014-06-27T13:30:00Z,28.1384,-96.8285,99.0,1111122 
NERRS,ioos:station:NOAA.NERRS:marmbwq:1,2014-06-27T14:30:00Z,28.1384,-96.8285,89.0,1111122 
NERRS,ioos:station:NOAA.NERRS:marmbwq:1,2014-06-27T16:30:00Z,28.1384,-96.8285,111.0,1111122 
NERRS,ioos:station:NOAA.NERRS:marmbwq:1,2014-06-27T17:30:00Z,28.1384,-96.8285,99.0,1111122 
NERRS,ioos:station:NOAA.NERRS:marmbwq:1,2014-06-27T18:30:00Z,28.1384,-96.8285,93.0,1111122 
NERRS,ioos:station:NOAA.NERRS:marmbwq:1,2014-06-27T19:30:00Z,28.1384,-96.8285,93.0,1111122 
NERRS,ioos:station:NOAA.NERRS:marmbwq:1,2014-06-27T20:30:00Z,28.1384,-96.8285,91.0,1111122 
NERRS,ioos:station:NOAA.NERRS:marmbwq:1,2014-06-27T22:30:00Z,28.1384,-96.8285,92.0,1111122 
NERRS,ioos:station:NOAA.NERRS:marmbwq:1,2014-06-27T23:30:00Z,28.1384,-96.8285,88.0,1111122 
NERRS,ioos:station:NOAA.NERRS:marmbwq:1,2014-06-28T00:30:00Z,28.1384,-96.8285,82.0,1111122 
NERRS,ioos:station:NOAA.NERRS:marmbwq:1,2014-06-28T01:30:00Z,28.1384,-96.8285,74.0,1111122 
NERRS,ioos:station:NOAA.NERRS:marmbwq:1,2014-06-28T02:30:00Z,28.1384,-96.8285,76.0,1111122 
NERRS,ioos:station:NOAA.NERRS:marmbwq:1,2014-06-28T03:30:00Z,28.1384,-96.8285,95.0,1111122 
NERRS,ioos:station:NOAA.NERRS:marmbwq:1,2014-06-28T05:30:00Z,28.1384,-96.8285,107.0,1111122 
NERRS,ioos:station:NOAA.NERRS:marmbwq:1,2014-06-28T06:30:00Z,28.1384,-96.8285,108.0,1111122 
NERRS,ioos:station:NOAA.NERRS:marmbwq:1,2014-06-28T07:30:00Z,28.1384,-96.8285,154.0,1111122 
NERRS,ioos:station:NOAA.NERRS:marmbwq:1,2014-06-28T08:30:00Z,28.1384,-96.8285,108.0,1111122 
NERRS,ioos:station:NOAA.NERRS:marmbwq:1,2014-06-28T09:30:00Z,28.1384,-96.8285,94.0,1111122 
NERRS,ioos:station:NOAA.NERRS:marmbwq:1,2014-06-28T11:30:00Z,28.1384,-96.8285,118.0,1111122 
NERRS,ioos:station:NOAA.NERRS:marmbwq:1,2014-06-28T13:30:00Z,28.1384,-96.8285,120.0,1111122 
NERRS,ioos:station:NOAA.NERRS:marmbwq:1,2014-06-28T16:30:00Z,28.1384,-96.8285,96.0,1111122 
NERRS,ioos:station:NOAA.NERRS:marmbwq:1,2014-06-28T17:30:00Z,28.1384,-96.8285,107.0,1111122 
NERRS,ioos:station:NOAA.NERRS:marmbwq:1,2014-06-28T18:30:00Z,28.1384,-96.8285,82.0,1111122 
NERRS,ioos:station:NOAA.NERRS:marmbwq:1,2014-06-28T20:30:00Z,28.1384,-96.8285,70.0,1111122 
NERRS,ioos:station:NOAA.NERRS:marmbwq:1,2014-06-28T21:30:00Z,28.1384,-96.8285,90.0,1111122 
NERRS,ioos:station:NOAA.NERRS:marmbwq:1,2014-06-28T22:30:00Z,28.1384,-96.8285,111.0,1111122 
NERRS,ioos:station:NOAA.NERRS:marmbwq:1,2014-06-28T23:30:00Z,28.1384,-96.8285,129.0,1111122 
NERRS,ioos:station:NOAA.NERRS:marmbwq:1,2014-06-29T01:30:00Z,28.1384,-96.8285,130.0,1111122 
NERRS,ioos:station:NOAA.NERRS:marmbwq:1,2014-06-29T02:30:00Z,28.1384,-96.8285,155.0,1111122 
NERRS,ioos:station:NOAA.NERRS:marmbwq:1,2014-06-29T03:30:00Z,28.1384,-96.8285,134.0,1111122 
NERRS,ioos:station:NOAA.NERRS:marmbwq:1,2014-06-29T04:30:00Z,28.1384,-96.8285,127.0,1111122 
NERRS,ioos:station:NOAA.NERRS:marmbwq:1,2014-06-29T05:30:00Z,28.1384,-96.8285,146.0,1111122 
NERRS,ioos:station:NOAA.NERRS:marmbwq:1,2014-06-29T06:30:00Z,28.1384,-96.8285,174.0,1111122 
NERRS,ioos:station:NOAA.NERRS:marmbwq:1,2014-06-29T07:30:00Z,28.1384,-96.8285,151.0,1111122 
NERRS,ioos:station:NOAA.NERRS:marmbwq:1,2014-06-29T08:30:00Z,28.1384,-96.8285,173.0,1111122 
NERRS,ioos:station:NOAA.NERRS:marmbwq:1,2014-06-29T09:30:00Z,28.1384,-96.8285,133.0,1111122 
NERRS,ioos:station:NOAA.NERRS:marmbwq:1,2014-06-29T10:30:00Z,28.1384,-96.8285,115.0,1111122 
NERRS,ioos:station:NOAA.NERRS:marmbwq:1,2014-06-29T12:30:00Z,28.1384,-96.8285,123.0,1111122 
NERRS,ioos:station:NOAA.NERRS:marmbwq:1,2014-06-29T13:30:00Z,28.1384,-96.8285,132.0,1111122 
NERRS,ioos:station:NOAA.NERRS:marmbwq:1,2014-06-29T15:30:00Z,28.1384,-96.8285,122.0,1111122 
NERRS,ioos:station:NOAA.NERRS:marmbwq:1,2014-06-29T17:30:00Z,28.1384,-96.8285,105.0,1111122 
NERRS,ioos:station:NOAA.NERRS:marmbwq:1,2014-06-29T18:30:00Z,28.1384,-96.8285,77.0,1111122 
NERRS,ioos:station:NOAA.NERRS:marmbwq:1,2014-06-29T19:30:00Z,28.1384,-96.8285,71.0,1111122 